sat.trackr.live / text

‹ back to catalog

STARLINK-31294

NORAD 58949 · 2024-027U

PAYLOAD ACTIVE UNKNOWN

§ Identity

Operator
Country
US
Launch date
2024-02-10
Launch site
AFWTR
Launch vehicle
Mass (kg)
RCS (m²)

Purposes: comms

External: N2YO · Heavens-Above · Gunter

§ Orbital elements

Epoch: 2026-09-20T00:38:50.252928Z

Period
93.85 min
Inclination
53.1614°
Eccentricity
0.0001392
Mean motion
15.34391701 rev/d
Perigee alt
461.8 km
Apogee alt
463.7 km
Semi-major
6,840.9 km
B*
3.8876e-5
RAAN
126.1350°
Arg perigee
82.1185°
Mean anomaly
277.9976°
Rev number
14,709

§ Raw data

STARLINK-312941 58949U 24027U   26263.02697052  .00000937  00000+0  38876-4 0  99942 58949  53.1614 126.1350 0001392  82.1185 277.9976 15.34391701147097

JSON: /api/v1/satellites/58949 · /tle

For live sub-satellite position, see the globe view (requires WebGL).

§ Visibility from observer

Set your observer location to see the next 7 days of passes ≥ 10°. The values pass through the URL so the page stays shareable.

No JS? Fill the form by hand. The geolocation button needs JavaScript.